Location: Betzi
(47.2343°N, 9.5260°E)
Time: 23:47:30
(UTC+00:00)

Lacrosse 5 rocket - Pass Details

Date: 27 May 2022
Orbit: 457 x 629 km, 57.0° (Epoch: 26 June)

Event Time Altitude Azimuth Distance (km) Brightness Sun altitude
Exits shadow 01:14:34 36° 188° (S) 820 1.7 -16.7°
Maximum altitude 01:15:46 51° 135° (SE) 651 1.5 -16.6°
Drops below altitude 10° 01:19:42 10° 59° (ENE) 1,800 4.9 -16.3°
Sets 01:22:02 0° 55° (NE) 2,729 6.1 -16.1°
